Flag for U.S.A. Weather past 2 weeks in Stamford, Connecticut, U.S.A.

Now
44 °F

Clear.


Feels Like: 42 °F
Forecast: 40 / 55 °F
Wind: 5 mph from Northeast

Location: Westchester County Airport


UV Index: 5 (Moderate)

Visibility: 10 mi


Pressure: 30.42 "Hg

Humidity: 45%

Dew point: 24 °F

Location of StamfordLocation

Historic Weather in Stamford

°F

Stamford temperature yesterday

Maximum temperature yesterday: 64 °F (at 3:56 PM)
Minimum temperature yesterday: 36 °F (at 4:56 AM)
Average temperature yesterday: 51 °F

Past Weeks' High & Low Weather Summary

 TemperatureHumidityPressure
High72 °F (Apr 11, 2:56 PM)100% (Apr 8, 10:56 AM)30.74 "Hg (Apr 8, 10:56 AM)
Low29 °F (Apr 16, 5:56 AM)17% (Apr 6, 4:56 PM)29.39 "Hg (Apr 8, 12:56 PM)
Average48 °F59%30.07 "Hg
* Reported Apr 5 3:56 AM — Apr 20 3:56 AM, Stamford, Weather by CustomWeather, © 2014

Note: Actual official high and low records may vary slightly from our data, if they occured in-between our weather recording intervals... More about our weather records

Advertising

Historic Weather Conditions — Data for Previous 24 hours

 ConditionsComfort  
Time TempWeatherWind HumidityBarometerVisibility
3:56 AM
Apr 20
45 °FClear.3 mph44%30.41 "Hg10 mi
2:56 AM47 °FClear.7 mph41%30.39 "Hg10 mi
1:56 AM48 °FClear.9 mph39%30.37 "Hg10 mi
12:56 AM48 °FClear.6 mph37%30.37 "Hg10 mi
11:56 PM
Apr 19
49 °FClear.8 mph36%30.35 "Hg10 mi
10:56 PM51 °FClear.9 mph32%30.34 "Hg10 mi
9:56 PM53 °FClear.12 mph30%30.33 "Hg10 mi
8:56 PM54 °FClear.6 mph27%30.30 "Hg10 mi
7:56 PM57 °FSunny.8 mph24%30.27 "Hg10 mi
6:56 PM60 °FSunny.10 mph20%30.26 "Hg10 mi
5:56 PM62 °FSunny.10 mph18%30.24 "Hg10 mi
4:56 PM63 °FSunny.15 mph20%30.23 "Hg10 mi
3:56 PM64 °FSunny.10 mph23%30.23 "Hg10 mi
2:56 PM63 °FSunny.15 mph22%30.22 "Hg10 mi
1:56 PM62 °FSunny.9 mph23%30.22 "Hg10 mi
12:56 PM60 °FSunny.12 mph24%30.24 "Hg10 mi
11:56 AM60 °FSunny.12 mph26%30.25 "Hg10 mi
10:56 AM58 °FSunny.16 mph32%30.26 "Hg10 mi
9:56 AM54 °FSunny.15 mph45%30.26 "Hg10 mi
8:56 AM50 °FSunny.10 mph59%30.26 "Hg10 mi
7:56 AM43 °FSunny.3 mph74%30.25 "Hg9 mi
6:56 AM38 °FClear.No wind79%30.24 "Hg10 mi
5:56 AM38 °FClear.No wind79%30.22 "Hg10 mi
Weather by CustomWeather, © 2014

See weather overview